DW0805 Ramloese DK current weather conditions

sailwx.info

Wind from 304 at 8 knots gusting 14

Air temperature 5.6° C
Dewpoint 3.2° C

Last reported at 2017-Feb-21 16:35 UTC.
Time now 2017-Feb-21 17:29 UTC

Location: N 56°01' E 012°05'.
View on Google Maps.

See reports from other nearby stations

  
Tides and Currents Weather Stations Pressure Air Temp Water Temp Dewpoint Dewpoint Depression Visibility Wind Speed Wind Dir Waves Ship Positions
date/time (UTC)wind fromknots sea level pressurealtimeterstation pressurevisibilityair tempwater tempwave heightnotes
2017-Feb-21 16:35 304 8 gusting 14 5.6
2017-Feb-21 16:25 283 8 gusting 17 5.6
2017-Feb-21 16:05 287 10 gusting 17 5.6
2017-Feb-21 15:45 290 7 gusting 14 5.6
2017-Feb-21 15:35 284 7 gusting 17 5.6
2017-Feb-21 15:25 286 10 gusting 14 6.1
2017-Feb-21 15:05 286 10 gusting 18 6.1
2017-Feb-21 14:55 289 12 gusting 18 6.1
2017-Feb-21 14:45 295 10 gusting 19 6.7
2017-Feb-21 14:35 289 12 gusting 18 6.7
2017-Feb-21 14:15 290 11 gusting 22 6.7
2017-Feb-21 14:05 303 10 gusting 19 6.7
2017-Feb-21 13:55 285 13 gusting 18 7.2
2017-Feb-21 13:45 290 13 gusting 18 7.2
2017-Feb-21 13:35 297 12 gusting 19 7.2
2017-Feb-21 13:25 297 10 gusting 17 7.2
2017-Feb-21 13:15 296 10 gusting 17 7.2
2017-Feb-21 12:55 295 12 gusting 18 7.2
2017-Feb-21 12:45 260 11 gusting 18 7.2
2017-Feb-21 12:25 277 10 gusting 17 7.2
2017-Feb-21 12:15 291 14 gusting 22 7.2
2017-Feb-21 11:55 279 11 gusting 21 7.2
2017-Feb-21 11:35 290 12 gusting 21 7.2
2017-Feb-21 11:25 294 13 gusting 22 7.2
2017-Feb-21 11:15 287 12 gusting 20 7.2
2017-Feb-21 11:05 293 12 gusting 19 7.2
2017-Feb-21 10:55 293 12 gusting 19 7.2
2017-Feb-21 10:35 294 14 gusting 22 6.7
2017-Feb-21 10:25 284 13 gusting 20 7.2
2017-Feb-21 10:15 273 12 gusting 20 7.2
2017-Feb-21 10:05 269 10 gusting 18 6.7
2017-Feb-21 09:55 281 9 gusting 22 6.7
2017-Feb-21 09:45 287 11 gusting 20 6.7
2017-Feb-21 09:25 273 11 gusting 19 6.7
2017-Feb-21 09:05 286 14 gusting 22 6.1
2017-Feb-21 08:45 286 11 gusting 21 6.1
2017-Feb-21 08:35 269 12 gusting 19 5.6
2017-Feb-21 08:05 275 12 gusting 19 5.0
2017-Feb-21 07:55 286 12 gusting 18 5.0
2017-Feb-21 07:45 259 11 gusting 17 5.0
2017-Feb-21 07:35 268 8 gusting 17 5.0
2017-Feb-21 07:25 305 10 gusting 17 5.0
2017-Feb-21 07:05 269 9 gusting 15 4.4
2017-Feb-21 06:55 271 10 gusting 17 5.0
2017-Feb-21 06:45 335 12 gusting 17 5.0
2017-Feb-21 06:35 283 8 gusting 18 4.4
2017-Feb-21 06:25 275 11 gusting 17 4.4
2017-Feb-21 06:15 285 11 gusting 18 4.4
2017-Feb-21 06:05 274 12 gusting 19 4.4
2017-Feb-21 05:55 267 10 gusting 18 4.4
2017-Feb-21 05:45 273 8 gusting 17 4.4
2017-Feb-21 05:15 275 10 gusting 17 4.4
2017-Feb-21 05:05 286 10 gusting 15 4.4
2017-Feb-21 04:55 273 7 gusting 13 4.4
2017-Feb-21 04:35 278 8 gusting 18 4.4
2017-Feb-21 04:25 291 10 gusting 14 4.4
2017-Feb-21 03:55 292 10 gusting 18 5.0
2017-Feb-21 03:45 300 11 gusting 17 5.0
2017-Feb-21 03:35 283 10 gusting 17 5.0
2017-Feb-21 03:25 285 10 gusting 18 5.6
2017-Feb-21 03:15 285 12 gusting 17 5.6
2017-Feb-21 03:05 285 11 gusting 18 5.6
2017-Feb-21 02:55 284 8 gusting 18 5.6
2017-Feb-21 02:45 276 10 gusting 18 5.6
2017-Feb-21 02:15 284 12 gusting 18 5.0
2017-Feb-21 02:05 284 12 gusting 18 5.6
2017-Feb-21 01:55 287 10 gusting 19 5.6
2017-Feb-21 01:35 278 8 gusting 19 5.0
2017-Feb-21 01:25 283 11 gusting 21 5.0
2017-Feb-21 01:15 300 10 gusting 18 5.0
2017-Feb-21 00:55 291 9 gusting 17 5.6
2017-Feb-21 00:35 281 8 gusting 17 5.6
2017-Feb-21 00:25 294 7 gusting 14 5.6
2017-Feb-21 00:15 284 6 gusting 14 5.6
2017-Feb-21 00:05 294 9 gusting 14 5.6
2017-Feb-20 23:55 299 9 gusting 17 5.6
2017-Feb-20 23:45 286 11 gusting 19 5.6
2017-Feb-20 23:25 269 12 gusting 18 5.6
2017-Feb-20 23:15 278 10 gusting 19 5.6
2017-Feb-20 23:05 278 10 gusting 17 5.6
2017-Feb-20 22:55 286 11 gusting 17 5.6
2017-Feb-20 22:45 277 11 gusting 18 5.6
2017-Feb-20 22:25 287 12 gusting 19 6.1
2017-Feb-20 21:55 285 13 gusting 21 6.1
2017-Feb-20 21:45 269 14 gusting 19 6.1
2017-Feb-20 21:25 280 14 gusting 19 6.1
2017-Feb-20 21:15 274 13 gusting 20 6.1
2017-Feb-20 21:05 275 13 gusting 22 6.1
2017-Feb-20 20:55 290 12 gusting 22 6.1
2017-Feb-20 20:45 279 13 gusting 20 6.7
2017-Feb-20 20:35 290 13 gusting 22 6.7
2017-Feb-20 20:25 279 20 gusting 26 6.7
2017-Feb-20 20:05 281 13 gusting 21 6.7
2017-Feb-20 19:35 278 13 gusting 18 6.7
2017-Feb-20 19:05 287 10 gusting 24 7.2
2017-Feb-20 18:35 258 10 gusting 21 7.2
2017-Feb-20 18:05 257 13 gusting 17 7.2
2017-Feb-20 17:55 274 10 gusting 17 7.2
2017-Feb-20 17:45 255 10 gusting 19 7.2
2017-Feb-20 17:05 269 12 gusting 19 7.2
2017-Feb-20 16:45 257 12 gusting 19 7.2
2017-Feb-20 16:35 261 16 gusting 20 7.2
2017-Feb-20 16:25 300 12 gusting 19 7.2
2017-Feb-20 16:15 274 9 gusting 18 7.2
2017-Feb-20 15:45 247 12 gusting 19 7.2
2017-Feb-20 15:35 253 11 gusting 17 7.2
2017-Feb-20 15:25 240 12 gusting 20 6.7
2017-Feb-20 15:15 242 10 gusting 17 6.7
2017-Feb-20 15:05 239 10 gusting 17 6.7
2017-Feb-20 14:55 305 10 gusting 15 7.2
2017-Feb-20 14:45 308 12 gusting 17 7.2
2017-Feb-20 14:35 306 11 gusting 19 7.2
2017-Feb-20 14:15 309 10 gusting 17 7.2
2017-Feb-20 14:05 296 11 gusting 17 7.2
2017-Feb-20 13:45 293 11 gusting 17 7.2
2017-Feb-20 13:15 245 10 gusting 19 7.2
2017-Feb-20 13:05 257 10 gusting 14 7.2
2017-Feb-20 12:55 298 12 gusting 17 7.2
2017-Feb-20 12:45 272 11 gusting 17 7.2
2017-Feb-20 12:35 271 13 gusting 18 7.2
2017-Feb-20 12:15 288 10 gusting 17 7.2
2017-Feb-20 11:45 301 13 gusting 21 7.2
2017-Feb-20 11:35 253 13 gusting 19 7.2
2017-Feb-20 11:25 266 13 gusting 19 7.2
2017-Feb-20 11:15 276 10 gusting 17 7.2
2017-Feb-20 11:05 291 12 gusting 20 7.2
2017-Feb-20 10:45 295 13 gusting 19 7.2
2017-Feb-20 10:35 244 11 gusting 20 6.7
2017-Feb-20 10:25 270 12 gusting 22 7.2
2017-Feb-20 10:15 273 12 gusting 22 7.2
2017-Feb-20 10:05 315 10 gusting 18 7.2
2017-Feb-20 09:55 311 10 gusting 21 6.7
2017-Feb-20 09:45 313 10 gusting 21 6.7
2017-Feb-20 09:35 268 13 gusting 21 6.7
2017-Feb-20 09:25 279 11 gusting 21 6.7
2017-Feb-20 09:05 292 13 gusting 21 6.7
2017-Feb-20 08:55 249 13 gusting 19 6.7
2017-Feb-20 08:15 280 11 gusting 18 6.1
2017-Feb-20 08:05 256 13 gusting 20 6.1
2017-Feb-20 07:55 255 12 gusting 17 6.1
2017-Feb-20 07:45 249 12 gusting 18 5.6
2017-Feb-20 07:25 309 13 gusting 22 5.6
2017-Feb-20 07:05 260 12 gusting 19 5.6
2017-Feb-20 06:55 242 11 gusting 17 5.0
2017-Feb-20 06:45 247 12 gusting 19 5.0
2017-Feb-20 06:35 244 13 gusting 20 5.0
2017-Feb-20 06:15 232 12 gusting 17 5.0
2017-Feb-20 06:05 232 11 gusting 17 5.0
2017-Feb-20 05:55 235 11 gusting 17 4.4
2017-Feb-20 05:45 226 10 gusting 17 5.0
2017-Feb-20 05:35 243 8 gusting 13 4.4
2017-Feb-20 05:25 229 10 gusting 18 5.0
2017-Feb-20 05:15 234 11 gusting 15 5.0
2017-Feb-20 05:05 234 10 gusting 14 5.0
2017-Feb-20 04:45 237 10 gusting 15 5.0
2017-Feb-20 04:25 240 10 gusting 17 5.0
2017-Feb-20 04:15 235 12 gusting 19 5.0
2017-Feb-20 03:45 240 10 gusting 15 5.0
2017-Feb-20 03:35 239 11 gusting 18 5.0
2017-Feb-20 03:15 240 8 gusting 14 5.0
2017-Feb-20 03:05 245 10 gusting 19 5.0
2017-Feb-20 02:05 254 9 gusting 13 4.4
2017-Feb-20 01:55 243 8 gusting 15 4.4
2017-Feb-20 01:45 248 8 gusting 15 4.4
2017-Feb-20 01:35 243 10 gusting 17 4.4
2017-Feb-20 01:25 255 10 gusting 19 4.4
2017-Feb-20 01:15 251 10 gusting 17 4.4
2017-Feb-20 01:05 271 8 gusting 17 4.4
2017-Feb-20 00:55 246 11 gusting 17 4.4
2017-Feb-20 00:45 269 10 gusting 18 4.4
2017-Feb-20 00:15 262 13 gusting 21 5.0
2017-Feb-20 00:05 243 7 gusting 14 5.0
2017-Feb-19 23:55 274 8 gusting 17 5.0
2017-Feb-19 23:45 243 8 gusting 19 5.0
2017-Feb-19 23:35 262 9 gusting 19 5.0
2017-Feb-19 23:15 264 9 gusting 15 5.0
2017-Feb-19 23:05 264 8 gusting 13 5.0
2017-Feb-19 22:55 255 10 gusting 14 5.0
2017-Feb-19 22:45 259 9 gusting 18 5.0
2017-Feb-19 22:35 277 9 gusting 19 5.0
2017-Feb-19 22:25 267 8 gusting 13 5.0
2017-Feb-19 22:15 257 11 gusting 19 5.6
2017-Feb-19 22:05 276 11 gusting 17 5.6
2017-Feb-19 21:55 271 7 gusting 17 5.6
2017-Feb-19 21:45 269 7 gusting 13 5.6
2017-Feb-19 21:35 269 7 gusting 15 5.6
2017-Feb-19 21:25 250 9 gusting 17 5.6
2017-Feb-19 20:25 262 10 gusting 17 6.1
2017-Feb-19 20:15 286 7 gusting 15 6.1
2017-Feb-19 20:05 266 8 gusting 14 6.1
2017-Feb-19 19:55 269 7 gusting 17 6.1
2017-Feb-19 19:45 263 9 gusting 14 6.7
2017-Feb-19 19:35 263 10 gusting 17 6.7
2017-Feb-19 19:25 251 6 gusting 13 6.7
2017-Feb-19 19:15 259 10 gusting 17 6.7
2017-Feb-19 19:05 266 9 gusting 13 6.7
2017-Feb-19 18:55 255 6 gusting 12 6.7
2017-Feb-19 18:35 276 6 gusting 13 6.7
2017-Feb-19 18:15 270 10 gusting 13 6.7
2017-Feb-19 18:05 266 9 gusting 14 6.7
2017-Feb-19 17:35 255 5 gusting 12 6.7
2017-Feb-19 17:25 256 6 gusting 13 6.1
2017-Feb-19 17:15 270 6 gusting 12 6.1